{"data":{"norad_id":53052,"epoch":"2026-05-25T01:15:15.820416Z","epoch_age_seconds":64544,"freshness":"FRESH","line1":"1 53052U 22077K   26145.05226644 -.00011759  00000+0 -81094-3 0  9999","line2":"2 53052  97.4492 324.9661 0001496 186.4634 173.6574 15.05711864212393","mean_motion":15.05711864,"eccentricity":0.0001496,"inclination_deg":97.4492,"raan_deg":324.9661,"arg_perigee_deg":186.4634,"mean_anomaly_deg":173.6574,"bstar":-0.00081094,"rev_number":21239,"period_min":95.63582744009,"perigee_km":548.28505107312,"apogee_km":550.35774662605,"semimajor_km":6927.4583988496,"source":"CELESTRAK","updated_at":"2026-05-25T13:38:17.287429Z"}}